SCP
0 0 0 0 0 0 0 0 0 0 0 0 0 0 0 0 0 0 0 0 0 1 1 1 1 1 1 1 1 0 0 0 0 0 0 0 0 0 0 0 0 0 0 0 0 0 0 0 0
0 0 0 0 0 0 0 0 0 0 0 0 0 0 0 0 0 0 0 0 0 1 1 1 1 1 1 1 1 0 0 0 0 0 0 0 0 0 0 0 0 0 0 0 0 0 0 0 0
0 0 0 0 0 0 0 0 0 0 0 0 0 0 0 0 0 0 0 0 1 1 1 1 1 1 1 1 1 1 0 0 0 0 0 0 0 0 0 0 0 0 0 0 0 0 0 0 0
0 0 0 0 0 0 0 0 0 0 0 0 0 0 0 0 0 0 0 0 1 1 1 1 1 1 1 1 1 1 1 0 0 0 0 0 0 0 0 0 0 0 0 0 0 0 0 0 0
0 0 0 0 0 0 0 0 0 0 0 0 0 0 0 0 1 1 1 0 1 1 1 1 1 1 1 1 1 1 1 1 0 0 0 0 0 0 0 0 0 0 0 0 0 0 0 0 0
0 0 0 0 0 0 0 0 0 0 0 0 0 0 0 0 1 1 1 1 1 1 1 1 1 1 1 1 1 1 1 1 1 1 0 0 0 0 0 0 0 0 0 0 0 0 0 0 0
0 0 0 0 0 0 0 0 0 0 0 0 0 0 0 0 1 1 1 1 1 1 1 1 1 1 1 1 1 1 1 1 1 1 1 0 0 0 0 0 0 0 0 0 0 0 0 0 0
0 0 0 0 0 0 0 0 0 0 0 1 1 1 0 1 1 1 1 1 1 1 1 1 1 1 1 1 1 1 1 1 1 1 1 1 0 0 0 0 0 0 0 0 0 0 0 0 0
0 0 0 0 0 0 0 0 0 0 1 1 1 1 1 1 1 1 2 1 1 1 1 1 1 1 1 1 1 1 1 1 1 1 1 1 0 0 0 0 1 1 1 1 1 1 0 0 0
0 0 0 0 0 0 0 0 0 1 1 1 1 1 1 1 1 2 2 2 1 1 1 1 1 1 1 1 1 1 1 1 1 1 1 1 0 0 0 0 1 1 1 1 1 1 1 1 1
0 0 0 0 0 0 0 0 0 1 1 1 2 2 2 2 2 2 2 2 2 1 1 1 1 1 1 1 1 1 1 1 1 1 1 1 1 0 0 1 1 1 1 1 1 1 1 1 1
0 0 0 0 0 0 0 0 1 1 1 2 2 3 3 3 3 3 3 2 2 2 1 1 1 1 1 1 1 1 1 1 1 1 1 1 1 1 1 1 1 1 1 1 1 1 1 1 1
0 0 0 0 0 0 0 1 1 1 2 2 3 4 4 4 3 3 3 3 2 2 1 1 1 1 1 1 1 1 1 1 1 1 1 1 1 1 1 1 1 1 1 1 1 1 1 1 1
0 0 0 0 0 0 1 1 1 2 2 3 3 4 5 4 3 3 3 2 2 2 2 1 1 1 1 1 1 1 1 1 1 1 1 1 1 1 1 1 1 1 1 1 1 1 1 1 1
0 0 0 0 0 0 1 1 1 2 2 3 3 3 3 3 2 2 2 2 2 1 2 2 2 1 1 1 1 1 1 1 1 1 1 1 1 1 1 1 1 1 1 1 1 1 1 1 1
0 0 0 0 0 0 1 1 1 2 2 2 2 2 2 2 2 2 1 1 1 1 1 2 2 1 1 1 1 1 1 1 1 1 1 1 1 1 1 1 1 1 1 1 1 1 0 1 1
-0 0 0 0 0 0 1 1 1 1 1 1 1 1 1 1 1 1 1 1 1 1 1 1 1 1 1 1 1 1 1 1 1 1 1 1 1 1 0 0 0 0 0 0 0 0 0 0 0
-0 -0 0 0 0 0 1 1 1 1 1 1 1 1 1 1 1 1 1 1 1 1 1 1 1 1 0 0 0 0 0 0 0 0 0 0 0 0 0 0 0 0 0 0 0 0 0 0 0
-0 0 0 0 0 1 1 1 1 1 1 1 1 1 0 0 0 0 0 0 0 0 1 0 0 0 0 0 0 0 0 0 0 0 0 0 0 0 0 0 0 0 0 0 0 0 0 0 0
0 0 0 0 0 1 1 1 1 1 0 0 0 0 0 0 0 0 0 0 0 0 0 0 0 0 0 0 0 0 0 0 0 0 0 0 0 0 0 0 0 0 0 0 0 0 0 0 0
0 0 0 0 0 0 0 1 0 0 0 0 0 0 0 0 0 0 0 0 0 0 0 0 0 0 0 0 0 0 0 0 0 0 0 0 0 0 0 0 0 0 0 0 0 0 0 0 0
0 0 0 0 0 0 0 0 0 0 0 0 0 0 0 0 0 0 0 0 0 0 0 0 0 0 0 0 0 0 0 0 0 0 0 0 0 0 0 0 0 0 0 0 0 0 0 0 0
0 0 0 0 0 0 0 0 0 0 0 0 0 0 0 0 0 0 0 0 0 0 0 0 0 0 0 0 0 0 0 0 0 0 0 0 0 0 0 0 0 0 0 0 0 0 0 0 0
0 0 0 0 0 0 0 0 0 0 0 0 0 0 0 0 0 0 0 0 0 0 0 0 0 0 0 0 0 0 0 0 0 0 0 0 0 0 0 0 0 0 0 0 0 0 0 0 0
0 0 0 0 0 0 0 0 0 0 0 0 0 0 0 0 0 0 0 0 0 0 0 0 0 0 0 0 0 0 0 0 0 0 0 0 0 0 0 0 0 0 0 0 0 0 0 0 0
0 0 0 0 0 0 0 0 0 0 0 0 0 0 0 0 0 0 0 0 0 0 0 0 0 0 0 0 0 0 0 0 0 0 0 0 0 0 0 0 0 0 0 0 0 0 0 0 0
0 0 0 0 0 0 0 0 0 0 0 0 0 0 0 0 0 0 0 0 0 0 0 0 0 0 0 0 0 0 0 0 0 0 0 0 0 0 0 0 0 0 0 0 0 0 0 0 0
0 0 0 0 0 0 0 0 0 0 0 0 0 0 0 0 0 0 0 0 0 0 0 0 0 0 0 0 0 0 0 0 0 0 0 0 0 0 0 0 0 0 0 0 0 0 0 0 0
0 0 0 0 0 0 0 0 0 0 0 0 0 0 0 0 0 0 0 0 0 0 0 0 0 0 0 0 0 0 0 0 0 0 0 0 0 0 0 0 0 0 0 0 0 0 0 0 0
0 0 0 0 0 0 0 0 0 0 0 0 0 0 0 0 0 0 0 0 0 0 0 0 0 0 0 0 0 0 0 0 0 0 0 0 0 0 0 0 0 0 0 0 0 0 0 0 0
Wind_Speed
10 6 2 0 1 1 5 7 4 2 2 3 7 9 8 6 4 4 3 15 19 18 14 16 19 19 19 18 18 17 17 16 16 15 15 15 15 14 14 13 13 13 13 12 12 12 12 12 12
7 5 2 1 1 2 6 5 5 4 2 4 7 8 8 7 7 9 6 14 19 18 12 14 20 20 19 18 18 17 17 16 16 15 15 14 14 14 13 13 13 13 13 12 12 12 11 11 11
7 5 1 1 1 3 6 7 8 5 2 2 3 5 5 5 7 6 10 17 16 14 11 14 21 20 19 18 17 17 17 16 16 15 14 14 13 13 13 12 12 12 12 12 12 11 11 10 10
4 1 1 0 5 8 8 12 8 6 2 3 6 5 4 3 5 11 17 17 16 12 10 14 20 19 19 18 17 17 16 16 16 15 14 14 13 13 13 12 12 12 12 12 11 11 11 10 9
2 2 1 3 7 9 10 13 9 4 1 4 9 7 4 6 15 19 17 17 16 12 9 12 19 19 19 18 17 16 16 16 15 15 14 14 13 13 13 12 12 12 12 12 11 11 11 10 9
2 2 2 4 7 8 8 8 4 2 5 6 7 7 3 7 15 16 16 14 14 14 10 10 18 18 18 17 17 16 15 15 15 15 14 14 13 13 13 13 12 12 12 12 12 11 11 10 9
3 2 4 5 6 7 7 3 3 4 4 3 6 7 4 7 12 14 14 14 13 12 9 7 9 12 16 16 16 15 14 14 14 14 14 14 13 13 13 13 13 13 13 12 12 12 12 11 11
4 1 4 4 5 7 7 5 3 4 3 4 5 8 6 7 11 14 13 12 12 10 8 7 6 6 6 9 14 15 15 14 14 14 14 14 14 13 13 12 13 14 14 14 14 14 14 13 12
1 0 5 5 5 7 8 4 5 5 6 5 4 5 7 12 14 14 12 10 9 9 6 7 6 6 5 5 10 11 13 13 13 11 14 12 6 6 7 11 14 15 15 15 15 15 15 14 13
4 4 10 8 6 7 8 4 1 5 7 6 7 7 9 11 14 14 13 12 10 10 8 7 7 7 6 7 5 4 5 6 6 5 6 5 4 5 8 9 16 16 16 17 17 16 14 11 6
6 9 12 13 13 9 6 5 3 6 6 4 7 8 8 9 10 10 10 11 10 10 10 8 7 7 7 5 5 3 3 3 4 5 5 4 4 4 5 3 7 10 13 9 10 10 7 6 5
7 12 14 14 13 8 5 1 3 5 6 7 9 10 10 10 8 8 8 8 8 8 7 7 6 5 6 4 4 4 3 3 4 5 6 4 3 4 4 3 4 5 4 6 6 5 7 7 8
9 13 14 14 11 8 2 2 6 7 9 13 15 14 12 11 10 8 8 8 8 7 6 6 6 5 4 3 3 3 3 3 4 4 5 5 4 4 4 3 3 4 4 5 5 6 7 8 8
8 9 10 10 8 3 4 4 7 6 11 15 15 13 11 11 10 9 8 6 5 5 4 4 5 4 4 3 2 1 1 2 2 2 3 3 2 2 2 2 2 3 3 4 5 7 7 7 7
5 8 11 8 5 2 8 8 7 8 12 15 14 13 13 11 10 9 7 6 3 3 4 4 4 3 3 3 2 2 1 2 1 1 1 2 2 2 2 2 2 2 3 4 4 6 5 6 6
6 5 6 10 4 2 10 7 6 7 12 12 12 11 11 9 9 8 8 6 4 4 5 4 5 5 4 4 2 1 2 2 2 2 2 2 1 1 1 1 2 2 2 3 3 4 4 5 5
4 4 8 10 4 4 9 8 6 7 10 10 9 9 9 8 8 6 6 6 4 4 5 5 5 5 4 3 2 2 2 2 2 1 1 1 0 0 1 2 2 2 2 2 4 3 4 4 5
6 6 6 5 3 12 14 10 8 7 9 7 7 8 5 6 5 5 5 5 5 5 4 5 5 4 3 2 3 3 3 3 2 1 0 0 0 1 1 1 2 1 1 2 3 3 3 4 4
9 7 7 3 4 11 15 13 10 9 10 9 6 5 4 4 4 4 4 5 5 4 4 4 4 2 2 2 2 2 2 2 2 1 1 1 1 1 1 1 1 1 1 3 3 2 3 3 2
6 5 2 5 9 10 13 12 9 7 6 4 3 2 2 3 3 3 3 3 3 3 3 3 3 2 2 1 1 1 0 0 1 1 2 2 2 2 2 1 2 2 2 2 3 2 2 2 2
4 2 2 5 7 10 8 7 6 3 3 2 1 1 2 3 4 3 3 3 3 3 3 3 3 2 2 1 1 2 2 2 2 2 2 3 3 3 2 2 2 2 1 2 3 2 2 2 2
3 1 5 8 7 3 2 3 2 4 4 2 2 1 3 2 3 4 5 4 4 4 3 3 3 2 2 2 2 2 1 1 2 2 2 3 3 3 2 2 2 2 1 2 2 2 2 1 1
1 3 6 8 7 5 5 4 2 2 3 4 5 4 3 4 5 5 5 5 3 3 3 3 2 2 2 2 2 2 1 2 2 2 3 3 3 4 3 2 2 2 2 3 2 2 2 2 2
2 6 7 7 6 6 4 1 3 4 5 4 4 3 4 4 3 3 2 2 2 2 2 2 2 1 1 1 1 2 3 3 3 3 3 3 3 3 4 3 3 3 2 3 3 3 3 2 2
5 5 5 7 6 1 3 1 5 6 5 5 5 5 3 2 2 2 2 2 2 2 1 1 1 2 2 2 2 2 3 3 3 4 4 3 3 3 4 4 3 3 3 4 3 2 3 3 2
1 6 6 4 3 1 2 1 6 6 5 5 5 5 2 2 2 2 2 2 1 1 1 0 0 2 2 2 3 2 2 2 2 4 4 4 3 4 4 4 4 4 4 4 3 2 3 3 3
2 1 5 8 4 3 1 2 6 4 4 4 4 3 2 2 2 2 2 2 1 1 0 0 0 2 3 3 3 3 3 3 4 4 4 3 4 4 4 4 4 5 5 5 4 3 4 3 4
3 3 5 6 6 3 1 2 4 4 4 3 3 3 3 2 2 2 1 1 1 0 0 1 1 2 3 3 4 3 3 4 4 3 4 4 5 4 4 5 5 5 5 5 4 4 5 5 4
4 4 5 4 5 7 3 4 5 6 5 5 4 4 3 3 3 2 1 0 1 1 1 2 2 3 3 4 3 4 4 4 4 4 5 5 5 5 5 6 6 6 6 6 5 6 6 6 6
2 2 5 5 2 4 5 4 2 6 5 5 4 3 3 4 3 3 2 1 2 2 2 2 3 3 3 3 3 4 4 5 5 5 6 6 6 6 6 6 6 6 6 6 6 7 6 6 7
Wind_Direction
165 158 159 132 29 4 274 259 256 305 345 15 66 82 82 69 112 140 115 140 137 143 150 150 147 145 144 143 142 140 138 137 136 135 134 133 131 131 130 130 131 130 129 128 128 126 126 125 124
156 160 161 26 55 356 284 274 295 276 183 103 72 77 75 72 90 110 117 141 140 143 146 150 148 146 146 146 146 145 144 144 143 142 142 142 141 141 140 139 139 137 137 136 135 134 133 133 132
167 182 142 88 271 221 267 288 285 292 253 88 79 52 66 94 109 121 141 141 137 140 143 152 149 148 149 149 149 150 150 149 149 150 150 150 150 150 150 149 148 147 146 145 144 143 143 143 143
157 137 352 167 244 243 248 270 271 283 5 75 105 65 41 48 115 130 138 141 137 138 142 153 150 149 150 152 153 154 154 155 155 156 157 158 159 159 158 159 159 158 157 156 155 154 155 156 158
107 125 188 256 245 248 245 255 264 248 127 107 103 97 37 27 107 128 140 142 139 138 143 152 151 152 153 155 156 158 159 161 162 163 164 165 167 169 170 169 169 168 167 167 167 166 166 169 173
124 143 186 247 258 269 263 241 231 133 120 120 108 109 98 115 120 136 139 140 140 142 144 150 154 154 155 156 159 161 164 165 167 168 170 172 175 178 178 178 179 178 178 177 177 178 179 182 186
171 187 228 250 282 291 289 286 80 100 103 135 127 109 124 141 137 139 138 133 134 140 143 144 152 156 158 159 162 165 167 169 170 172 176 179 183 185 187 188 189 188 188 188 188 190 190 193 197
190 160 277 276 285 287 301 349 42 85 91 106 113 130 162 167 141 135 130 128 130 138 146 145 145 148 155 163 168 171 173 175 178 181 184 188 190 192 196 195 198 198 198 198 198 199 198 200 203
227 359 259 254 260 277 302 352 3 40 79 66 72 128 154 138 129 126 121 121 129 137 149 152 153 151 153 163 178 177 180 184 186 189 193 194 197 198 202 205 206 207 207 206 206 207 206 206 209
170 207 240 238 249 277 300 319 325 64 66 62 63 71 107 120 129 132 135 139 144 151 160 164 164 163 165 180 174 182 190 189 189 191 197 192 191 206 212 219 218 217 215 214 214 213 212 211 210
197 222 252 264 265 266 283 314 357 103 80 103 119 116 108 107 120 131 138 143 153 157 160 165 169 171 178 187 168 186 198 192 198 201 202 198 200 213 222 217 229 227 223 217 218 216 212 210 203
241 255 257 263 267 265 256 254 39 76 116 112 98 91 84 86 89 101 114 129 143 147 152 151 161 162 182 182 174 186 198 196 201 208 205 201 208 215 219 218 217 218 216 209 210 210 210 211 209
247 257 264 265 269 258 243 133 101 89 96 90 83 75 75 80 81 88 104 116 123 135 154 159 154 160 171 168 172 178 193 195 201 200 207 203 207 215 217 218 214 217 215 210 211 215 217 216 215
252 270 284 282 269 251 129 99 84 99 100 87 81 76 75 80 85 83 81 77 96 127 138 145 145 150 145 145 144 150 151 143 162 171 187 188 205 222 223 225 224 221 222 221 217 220 219 222 218
289 311 310 296 284 208 104 60 78 112 99 91 87 84 79 76 82 85 83 74 72 92 103 116 124 99 108 104 101 93 77 89 90 94 106 138 164 209 218 239 242 235 228 228 226 228 223 225 223
341 331 302 292 294 229 107 104 94 95 96 91 88 84 79 73 78 78 78 79 74 75 75 73 90 76 65 65 46 51 63 76 70 67 82 107 134 183 222 248 252 252 245 236 237 231 227 226 224
348 293 280 296 338 80 91 107 89 74 86 88 84 81 84 82 78 80 85 86 88 86 84 78 74 77 71 61 51 48 51 52 52 59 65 68 50 281 215 249 254 256 262 258 256 246 235 231 227
265 275 287 294 14 80 81 81 72 60 75 78 81 74 71 86 88 94 94 96 89 88 88 84 78 71 69 58 48 33 32 30 35 42 40 24 324 305 248 255 275 267 276 274 262 255 249 233 227
254 274 286 299 87 83 87 82 62 47 54 43 53 77 81 87 86 87 93 96 93 86 85 88 91 79 71 57 51 39 14 0 6 358 323 305 304 296 279 273 290 283 265 268 265 253 259 249 218
265 273 315 38 60 82 85 73 59 53 65 59 36 95 141 124 109 112 121 117 120 128 125 125 124 113 103 107 118 136 151 305 313 335 340 318 306 296 289 260 247 246 258 273 273 255 250 251 206
301 260 155 130 74 68 87 53 25 2 41 58 44 344 271 176 163 162 160 170 169 172 174 161 161 147 140 123 84 51 31 5 355 338 319 302 290 286 286 263 247 245 234 252 247 228 222 241 246
316 19 129 130 108 79 94 132 302 313 327 312 284 281 278 217 172 186 190 186 186 191 178 163 164 167 165 139 117 125 140 238 258 263 277 295 294 292 278 262 251 251 239 240 246 213 205 213 265
210 53 79 99 101 84 31 94 271 286 288 270 264 257 264 239 198 194 197 190 190 176 156 161 166 192 199 168 158 156 201 231 261 281 297 301 299 294 286 263 251 248 239 234 237 244 226 209 219
122 71 55 57 69 58 341 66 282 252 241 263 269 256 249 242 209 192 180 129 123 124 132 151 158 224 243 216 207 200 224 247 271 284 290 291 290 291 294 269 247 244 241 235 231 229 234 231 224
54 75 35 19 34 18 307 22 264 256 254 252 264 271 272 253 204 171 135 133 149 143 162 174 176 255 272 268 262 253 248 251 257 265 264 270 275 274 276 270 248 245 245 243 233 227 233 226 222
46 122 143 163 165 197 322 261 266 269 268 260 253 256 268 264 193 150 148 147 148 144 151 162 225 278 290 285 281 276 268 257 259 260 259 258 256 259 266 267 255 250 246 247 237 230 233 225 222
40 40 138 118 97 101 253 279 296 278 270 255 239 234 237 215 160 141 129 132 141 110 71 180 245 282 282 275 275 274 274 267 265 269 266 263 262 270 276 271 263 260 252 245 234 234 239 232 226
119 138 81 99 129 126 184 226 231 237 232 224 187 182 194 178 146 137 128 121 99 79 341 357 328 287 289 296 291 300 292 283 276 278 277 270 268 271 279 277 270 263 255 247 237 236 237 234 236
15 40 90 104 134 137 154 266 226 197 181 163 177 181 175 155 147 146 146 100 43 22 8 349 327 316 312 310 303 308 301 296 294 287 280 276 272 272 268 265 263 260 256 251 242 238 234 230 237
158 146 119 111 62 110 124 262 259 166 167 159 164 161 145 136 136 130 116 64 32 1 337 325 312 310 303 303 308 306 302 301 296 289 284 281 278 274 269 267 264 261 259 248 241 244 244 230 229